SKYSAT-C7 (42991 NORAD) Tracking and Keplerian Element Data

This shows tracking and keplerian element data for the satellite.

Feedback or suggestion? Click here.




ElementValue
Catalog42991
NameSKYSAT-C7
Epoch Orbit5742
Epoch Day317.78615125
Epoch Year2018
RAAN69.6173
Inclination97.4182
Eccentricity0.0005447
Argument of Perigee338.8458
Mean Anonmoly150.9815
Mean Motion15.21572452
Decay Rate7.09E-06
L11 42991U 17068E 18317.78615125 .00000709 00000-0 34490-4 0 9992
L22 42991 97.4182 69.6173 0005447 338.8458 150.9815 15.21572452 57420

Live tracking and technical data element details for SKYSAT-C7 (NORAD 42991). SKYSAT-C7 can be tracked NOW for your location showing map with azimuth and elevation plus other details from your city location.

Track the satellite on the map from your city or location and see movement details for azimuth, elevation, latitude, longitude, range, height, and movement on the map or in text.







IsCatalogInMostPopularTable: catalog: 42991, numindb: 138
Update: records affected: 1



GetName: 42991 SKYSAT-C7

Hit Count: updated at: Wed, 14 Nov 2018 15:21:30 GMT